星链-35263(STARLINK-35263)

导读

STARLINK-35263是美国太空探索技术公司SpaceX星链(Starlink)星座的卫星,由美国在2025年9月13日发射升空,属于星链星座低轨卫星组网扩容的组成部分,旨在为全球提供高速低延迟的卫星互联网服务,弥补地面网络覆盖盲区,提升全球网络接入的普惠性。

Basic Information
目录编号:
65597
目录名称:
STARLINK-35263
国际标识:
2025-207F
轨道中心:
EARTH
卫星名称:
星链-35263
卫星全名:
星链-35263(STARLINK-35263)
卫星状态:
在轨 (已飞行357 天)
发射日期:
2025-09-13 UTC
国别 :
美国 (US)
星等 :
--
Orbit Information
数据来源 国际轨道数据
星历时间: 2026-09-04T22:41:12+0800
23小时前
查看轨道信息
半长轴: 6927.615km
偏心率: 0.0001372
轨道倾角: 97.281°
近地点辐角 190.745°
升交点赤经 310.822°
平近点角 169.375°
近地点: 548.527km
远地点: 550.429km
周期: 95.639分钟
每日圈数: 15.056611
Detailed Information
固有亮度:
5
最大亮度:
2.5
卫星平台:
Starlink V1.0
覆盖范围:
全球
运营商:
太空探索技术公司
运营商所在国:
美国
制造商(研发单位):
太空探索技术公司
制造商所在国:
美国
使用方式:
暂无
Satellite Introduction
Starlink 计划是 SpaceX 推出的全球卫星互联网项目,通过发射低轨道卫星,为全球尤其是偏远地区提供高速、低延迟的互联网服务。自 2019 年起,Starlink 已部署数千颗卫星,旨在缩小全球数字鸿沟,推动互联网普及。该项目还为军事、航空等行业提供通信支持,带来广泛经济效益。
2D Orbit Map
3D Orbit Map
Orbit Altitude Analysis Chart
Orbit Inclination Analysis Chart
Orbit Comprehensive Analysis Chart
View Comprehensive Chart
Conjunction Data List
Event ID Objects TCA Miss Dist (km) Collision Risk Probability Collision Risk Index (CRI) Action
CDM_260906-222104-860706-559723
2026-09-06T
22:21:29+0000
1.055 km
极远距离
2.210279E-5 中风险 0.62
CDM_260830-171706-431106-559721
2026-08-30T
17:17:12+0000
2.909 km
极远距离
1.40358E-6 低风险 0.38